Total_Precipitation_Accumulation
0.09 0.07 0.05 0.04 0.03 0.03 0.02 0.02 0.01 0.01 0.01 0.01 0.01 0.00 0.00 0.00 0.00 0.00 0.00 0.00 0.00 0.01 0.02 0.05 0.08 0.10 0.14 0.17 0.19 0.20 0.19 0.17 0.15 0.15 0.14 0.14 0.15 0.15 0.16 0.17 0.18 0.19 0.20
0.11 0.08 0.07 0.05 0.05 0.04 0.02 0.02 0.02 0.02 0.01 0.01 0.01 0.01 0.00 0.01 0.00 0.00 0.00 0.00 0.00 0.00 0.02 0.05 0.10 0.14 0.17 0.21 0.25 0.26 0.24 0.20 0.19 0.18 0.18 0.18 0.18 0.18 0.18 0.19 0.19 0.20 0.21
0.13 0.12 0.10 0.09 0.08 0.07 0.05 0.04 0.03 0.03 0.02 0.02 0.02 0.02 0.02 0.02 0.01 0.01 0.00 0.00 0.00 0.01 0.01 0.04 0.10 0.15 0.17 0.20 0.26 0.30 0.31 0.28 0.25 0.23 0.23 0.23 0.22 0.21 0.22 0.22 0.23 0.24 0.24
0.20 0.18 0.15 0.13 0.11 0.10 0.09 0.08 0.07 0.07 0.06 0.05 0.04 0.03 0.02 0.02 0.01 0.01 0.01 0.01 0.01 0.01 0.02 0.03 0.06 0.09 0.14 0.18 0.24 0.33 0.39 0.38 0.32 0.28 0.27 0.28 0.29 0.29 0.29 0.30 0.31 0.31 0.31
0.29 0.24 0.20 0.18 0.16 0.15 0.13 0.13 0.11 0.10 0.09 0.07 0.06 0.04 0.03 0.02 0.02 0.02 0.02 0.02 0.02 0.01 0.02 0.02 0.03 0.05 0.08 0.12 0.20 0.32 0.42 0.45 0.41 0.36 0.33 0.33 0.35 0.36 0.38 0.41 0.42 0.42 0.43
0.41 0.36 0.30 0.25 0.21 0.19 0.18 0.17 0.15 0.13 0.12 0.11 0.10 0.07 0.04 0.03 0.03 0.02 0.02 0.03 0.03 0.03 0.03 0.03 0.03 0.04 0.05 0.08 0.13 0.20 0.31 0.39 0.43 0.42 0.40 0.39 0.40 0.42 0.46 0.50 0.51 0.54 0.57
0.57 0.54 0.49 0.41 0.34 0.28 0.23 0.21 0.20 0.18 0.15 0.16 0.16 0.11 0.06 0.04 0.03 0.03 0.03 0.03 0.04 0.05 0.05 0.05 0.06 0.06 0.07 0.08 0.10 0.13 0.18 0.26 0.36 0.44 0.44 0.44 0.46 0.49 0.55 0.62 0.67 0.68 0.70
0.77 0.67 0.60 0.57 0.52 0.43 0.34 0.30 0.30 0.28 0.24 0.27 0.29 0.27 0.15 0.07 0.03 0.04 0.04 0.04 0.05 0.06 0.07 0.08 0.08 0.08 0.09 0.10 0.10 0.11 0.12 0.17 0.29 0.45 0.52 0.53 0.54 0.57 0.64 0.73 0.79 0.84 0.89
0.94 0.81 0.73 0.72 0.67 0.59 0.50 0.47 0.46 0.46 0.42 0.40 0.41 0.45 0.34 0.18 0.11 0.07 0.07 0.08 0.09 0.09 0.09 0.10 0.11 0.11 0.11 0.11 0.11 0.12 0.15 0.18 0.27 0.43 0.58 0.66 0.70 0.72 0.77 0.85 0.93 1.01 1.06
1.04 0.98 0.89 0.82 0.78 0.74 0.67 0.65 0.64 0.64 0.62 0.51 0.44 0.41 0.42 0.37 0.32 0.19 0.10 0.11 0.13 0.12 0.13 0.13 0.13 0.13 0.13 0.14 0.16 0.19 0.24 0.30 0.38 0.52 0.69 0.82 0.91 1.02 1.12 1.19 1.22 1.29 1.28
1.01 0.99 0.96 0.91 0.84 0.81 0.78 0.75 0.72 0.73 0.72 0.67 0.57 0.53 0.51 0.45 0.39 0.36 0.22 0.13 0.14 0.15 0.15 0.14 0.14 0.13 0.14 0.16 0.20 0.26 0.35 0.43 0.53 0.67 0.89 1.09 1.20 1.33 1.50 1.60 1.64 1.67 1.63
0.99 0.96 0.94 0.91 0.87 0.84 0.82 0.84 0.85 0.86 0.86 0.81 0.74 0.65 0.61 0.56 0.49 0.48 0.41 0.28 0.24 0.21 0.19 0.18 0.18 0.19 0.21 0.24 0.30 0.40 0.47 0.54 0.64 0.80 1.07 1.28 1.39 1.48 1.56 1.67 1.73 1.75 1.76
0.91 0.83 0.83 0.84 0.85 0.84 0.85 0.88 0.90 0.87 0.88 0.84 0.79 0.73 0.68 0.61 0.57 0.60 0.60 0.49 0.41 0.31 0.29 0.29 0.31 0.35 0.39 0.44 0.48 0.57 0.58 0.62 0.69 0.79 1.01 1.21 1.27 1.31 1.38 1.52 1.68 1.77 1.79
1.01 0.96 0.91 0.89 0.91 0.90 0.86 0.85 0.83 0.82 0.82 0.81 0.77 0.75 0.72 0.67 0.65 0.67 0.71 0.77 0.75 0.61 0.53 0.50 0.51 0.55 0.59 0.62 0.67 0.71 0.63 0.69 0.68 0.71 0.84 0.98 1.01 1.00 1.00 1.10 1.26 1.41 1.53
0.94 0.92 0.95 0.94 0.89 0.87 0.85 0.84 0.81 0.76 0.74 0.72 0.70 0.71 0.69 0.66 0.67 0.73 0.81 0.93 1.07 1.03 0.84 0.69 0.68 0.69 0.72 0.72 0.75 0.66 0.57 0.65 0.66 0.65 0.69 0.75 0.76 0.73 0.71 0.78 0.84 0.93 1.04
0.87 0.85 0.86 0.89 0.85 0.79 0.76 0.74 0.73 0.70 0.69 0.65 0.64 0.67 0.68 0.66 0.67 0.72 0.80 0.89 1.02 1.15 1.08 0.82 0.69 0.65 0.65 0.62 0.66 0.56 0.50 0.59 0.56 0.55 0.57 0.59 0.61 0.58 0.58 0.61 0.64 0.67 0.70
0.81 0.81 0.80 0.78 0.78 0.75 0.69 0.66 0.62 0.61 0.62 0.60 0.57 0.58 0.61 0.62 0.65 0.67 0.70 0.76 0.82 0.91 0.96 0.81 0.65 0.60 0.58 0.54 0.51 0.44 0.41 0.40 0.40 0.48 0.48 0.48 0.47 0.47 0.50 0.50 0.52 0.56 0.58
0.65 0.70 0.70 0.67 0.64 0.63 0.63 0.62 0.59 0.55 0.55 0.55 0.54 0.53 0.52 0.52 0.56 0.59 0.64 0.67 0.69 0.70 0.73 0.70 0.58 0.51 0.47 0.42 0.37 0.33 0.30 0.29 0.27 0.34 0.34 0.35 0.35 0.35 0.35 0.35 0.38 0.42 0.45
0.51 0.56 0.59 0.59 0.58 0.54 0.52 0.52 0.52 0.51 0.49 0.49 0.51 0.54 0.55 0.56 0.59 0.60 0.60 0.58 0.56 0.56 0.56 0.55 0.46 0.39 0.36 0.33 0.31 0.28 0.23 0.20 0.18 0.20 0.20 0.20 0.21 0.23 0.26 0.29 0.29 0.29 0.30
0.44 0.47 0.49 0.51 0.52 0.52 0.53 0.53 0.54 0.57 0.57 0.57 0.58 0.63 0.66 0.67 0.65 0.61 0.57 0.54 0.52 0.52 0.50 0.50 0.49 0.43 0.38 0.32 0.30 0.26 0.22 0.18 0.15 0.14 0.15 0.16 0.18 0.19 0.18 0.17 0.16 0.14 0.13
0.43 0.43 0.47 0.48 0.51 0.54 0.58 0.63 0.67 0.73 0.79 0.82 0.81 0.79 0.77 0.78 0.74 0.67 0.61 0.56 0.53 0.54 0.58 0.61 0.56 0.45 0.34 0.27 0.24 0.20 0.21 0.21 0.19 0.18 0.17 0.14 0.13 0.12 0.10 0.09 0.08 0.08 0.08
0.45 0.44 0.48 0.52 0.56 0.61 0.77 0.78 0.72 0.76 0.84 0.84 0.81 0.75 0.70 0.69 0.64 0.62 0.59 0.56 0.57 0.62 0.69 0.70 0.58 0.42 0.26 0.20 0.20 0.24 0.31 0.39 0.34 0.19 0.18 0.15 0.12 0.11 0.09 0.07 0.07 0.08 0.11
0.56 0.57 0.61 0.68 0.73 0.78 0.83 0.76 0.74 0.67 0.67 0.66 0.63 0.60 0.56 0.53 0.53 0.49 0.51 0.57 0.60 0.63 0.59 0.50 0.42 0.31 0.26 0.24 0.33 0.45 0.43 0.41 0.29 0.15 0.18 0.19 0.14 0.13 0.11 0.10 0.10 0.09 0.09
0.79 0.83 0.86 0.89 0.89 0.88 0.81 0.68 0.60 0.53 0.53 0.52 0.49 0.47 0.45 0.45 0.44 0.46 0.53 0.60 0.52 0.46 0.41 0.35 0.31 0.30 0.30 0.31 0.40 0.50 0.47 0.40 0.27 0.21 0.21 0.25 0.17 0.14 0.11 0.10 0.10 0.10 0.10
0.96 0.94 0.91 0.85 0.78 0.72 0.64 0.52 0.44 0.38 0.37 0.37 0.35 0.36 0.40 0.40 0.44 0.58 0.64 0.59 0.45 0.38 0.38 0.40 0.41 0.37 0.35 0.34 0.34 0.47 0.57 0.58 0.43 0.25 0.19 0.22 0.17 0.15 0.13 0.10 0.07 0.09 0.12
0.85 0.79 0.72 0.64 0.56 0.49 0.45 0.39 0.35 0.31 0.30 0.28 0.28 0.28 0.33 0.37 0.50 0.62 0.55 0.49 0.42 0.37 0.39 0.38 0.36 0.34 0.31 0.29 0.31 0.39 0.65 0.89 0.66 0.40 0.19 0.29 0.27 0.29 0.36 0.12 0.07 0.09 0.12